Location: Unspecified
(0.0000°N, 0.0000°E)
Time: 20:55:53
(UTC+00:00)

Envisat - Pass Details

Date: 19 June 2019
Orbit: 764 x 766 km, 98.1° (Epoch: 26 June)

Event Time Altitude Azimuth Distance (km) Brightness Sun altitude
Rises 20:02:44 0° 207° (SSW) 3,230 6.3 -27.6°
Reaches altitude 10° 20:07:02 10° 242° (WSW) 2,300 5.9 -28.6°
Maximum altitude 20:08:19 11° 257° (WSW) 2,236 6.0 -28.8°
Drops below altitude 10° 20:09:35 10° 272° (W) 2,297 6.2 -29.1°
Sets 20:13:54 0° 308° (NW) 3,218 7.4 -30.1°
